EW8665 Weather Reports


time (UTC)temp
C
wind
direction
speed
KPH
gust
KPH
rain 1hr
cm
rain 24hr
cm
rain mn
cm
humidity
%
barometer
mb
20260502170504 23 6 3.2 8.0 0.00 0.00 0.00 43 1016.1
20260502164004 24 1 3.2 4.8 0.00 0.00 0.00 40 1016.2
20260502163504 24 356 3.2 8.0 0.00 0.00 0.00 40 1016.3
20260502163004 24 339 3.2 8.0 0.00 0.00 0.00 39 1016.5
20260502162505 24 335 4.8 8.0 0.00 0.00 0.00 39 1016.3
20260502162005 25 341 3.2 6.4 0.00 0.00 0.00 40 1016.7
20260502161505 25 344 3.2 8.0 0.00 0.00 0.00 39 1016.7
20260502161004 25 308 4.8 9.7 0.00 0.00 0.00 37 1016.7
20260502160504 25 283 4.8 9.7 0.00 0.00 0.00 36 1016.7
20260502152007 25 288 8.0 12.9 0.00 0.00 0.00 35 1016.9
20260502151504 26 278 8.0 16.1 0.00 0.00 0.00 35 1017.2
20260502151007 26 272 8.0 16.1 0.00 0.00 0.00 35 1017.2
20260502150504 26 265 8.0 16.1 0.00 0.00 0.00 35 1017.2
20260502123504 24 274 8.0 19.3 0.00 0.00 0.00 37 1019.3
20260502123004 25 281 6.4 14.5 0.00 0.00 0.00 38 1019.2
20260502122004 24 269 8.0 17.7 0.00 0.00 0.00 38 1019.3
20260502121005 24 252 9.7 20.9 0.00 0.00 0.00 37 1019.6
20260502120508 24 236 9.7 17.7 0.00 0.00 0.00 38 1019.5
20260502115504 23 223 9.7 20.9 0.00 0.00 0.00 39 1019.9
20260502115004 23 220 11.3 20.9 0.00 0.00 0.00 37 1019.7
20260502114005 23 225 9.7 16.1 0.00 0.00 0.00 38 1019.9
20260502113504 23 232 8.0 17.7 0.00 0.00 0.00 39 1020.0
20260502113004 23 232 8.0 17.7 0.00 0.00 0.00 39 1020.1
20260502112504 23 238 9.7 16.1 0.00 0.00 0.00 39 1020.3
20260502112005 23 236 9.7 16.1 0.00 0.00 0.00 40 1020.2
20260502111505 23 254 6.4 14.5 0.00 0.00 0.00 39 1020.4
20260502111005 23 270 4.8 11.3 0.00 0.00 0.00 41 1020.4
20260502110504 23 277 6.4 14.5 0.00 0.00 0.00 41 1020.5
20260502110005 23 276 6.4 14.5 0.00 0.00 0.00 41 1020.5
20260502105505 23 275 6.4 12.9 0.00 0.00 0.00 43 1020.6
20260502105004 22 278 8.0 16.1 0.00 0.00 0.00 43 1020.7
20260502104504 22 260 8.0 16.1 0.00 0.00 0.00 43 1020.8
20260502104004 22 252 9.7 16.1 0.00 0.00 0.00 42 1020.8
20260502103504 22 248 8.0 16.1 0.00 0.00 0.00 43 1020.9
20260502103005 22 243 6.4 12.9 0.00 0.00 0.00 43 1020.9
20260502102505 22 247 8.0 12.9 0.00 0.00 0.00 43 1020.9
20260502102004 22 247 6.4 12.9 0.00 0.00 0.00 45 1020.9
20260502101004 22 248 4.8 12.9 0.00 0.00 0.00 47 1021.3
20260502100505 22 251 6.4 12.9 0.00 0.00 0.00 47 1021.2
20260502091504 21 267 6.4 11.3 0.00 0.00 0.00 46 1021.7
20260502091005 20 259 6.4 19.3 0.00 0.00 0.00 46 1021.8
20260502090504 20 246 9.7 19.3 0.00 0.00 0.00 46 1021.8
20260502071504 18 237 6.4 14.5 0.00 0.00 0.00 50 1022.0
20260502071004 18 229 3.2 9.7 0.00 0.00 0.00 53 1022.0
20260502070005 18 236 4.8 12.9 0.00 0.00 0.00 54 1021.9
20260502065504 17 227 3.2 6.4 0.00 0.00 0.00 56 1021.9
20260502065004 17 233 3.2 4.8 0.00 0.00 0.00 57 1022.0
20260502064504 17 228 3.2 6.4 0.00 0.00 0.00 62 1021.9
20260502064007 16 205 3.2 6.4 0.00 0.00 0.00 65 1022.1
20260502063504 16 109 3.2 6.4 0.00 0.00 0.00 66 1022.0
20260502063006 15 77 1.6 4.8 0.00 0.00 0.00 68 1021.9
20260502062504 15 78 3.2 4.8 0.00 0.00 0.00 68 1021.8
20260502062004 15 79 1.6 4.8 0.00 0.00 0.00 68 1021.9
20260502061504 15 73 1.6 4.8 0.00 0.00 0.00 68 1021.7
20260502061005 14 68 3.2 4.8 0.00 0.00 0.00 67 1021.9
20260502060504 14 67 1.6 4.8 0.00 0.00 0.00 67 1021.9
20260502055504 13 50 3.2 8.0 0.00 0.00 0.00 65 1021.7
20260502055004 13 47 4.8 9.7 0.00 0.00 0.00 65 1021.9
20260502054504 13 52 4.8 9.7 0.00 0.00 0.00 65 1021.8
20260502054005 12 60 4.8 8.0 0.00 0.00 0.00 66 1021.7
20260502053504 12 64 3.2 8.0 0.00 0.00 0.00 69 1021.6
20260502053004 12 70 3.2 8.0 0.00 0.00 0.00 70 1021.8
20260502052004 11 76 3.2 6.4 0.00 0.00 0.00 69 1021.8
20260502051504 11 81 3.2 6.4 0.00 0.00 0.00 70 1021.8
20260502051004 11 79 3.2 6.4 0.00 0.00 0.00 70 1021.7
20260502050504 11 79 3.2 6.4 0.00 0.00 0.00 71 1021.6
20260502050005 11 79 3.2 8.0 0.00 0.00 0.00 71 1021.6
20260502045507 10 72 3.2 8.0 0.00 0.00 0.00 72 1021.5
20260502044504 10 80 4.8 8.0 0.00 0.00 0.00 73 1021.5
20260502044004 10 84 4.8 8.0 0.00 0.00 0.00 72 1021.5
20260502043504 10 80 3.2 6.4 0.00 0.00 0.00 72 1021.5
20260502043004 10 84 3.2 6.4 0.00 0.00 0.00 72 1021.7
20260502042504 10 92 3.2 6.4 0.00 0.00 0.00 72 1021.5
20260502042005 10 91 3.2 6.4 0.00 0.00 0.00 72 1021.5
20260502041504 10 94 1.6 4.8 0.00 0.00 0.00 73 1021.8
20260502041004 10 90 1.6 3.2 0.00 0.00 0.00 72 1021.5
20260502040504 10 95 1.6 3.2 0.00 0.00 0.00 72 1021.6
20260502040004 10 93 1.6 3.2 0.00 0.00 0.00 72 1021.7
20260502035504 10 90 3.2 4.8 0.00 0.00 0.00 71 1021.4
20260502035005 10 86 3.2 4.8 0.00 0.00 0.00 71 1021.6
20260502034504 10 87 3.2 6.4 0.00 0.00 0.00 70 1021.6
20260502034007 10 85 3.2 6.4 0.00 0.00 0.00 69 1021.5
20260502033505 10 83 4.8 6.4 0.00 0.00 0.00 69 1021.7
20260502033004 10 79 4.8 6.4 0.00 0.00 0.00 68 1021.7
20260502032504 10 36 1.6 4.8 0.00 0.00 0.00 68 1021.8
20260502032004 10 259 1.6 4.8 0.00 0.00 0.00 67 1021.9
20260502031504 10 250 1.6 4.8 0.00 0.00 0.00 67 1021.9
20260502031004 10 249 1.6 4.8 0.00 0.00 0.00 66 1021.8
20260502030504 11 243 3.2 6.4 0.00 0.00 0.00 66 1021.8
20260502030004 11 100 4.8 9.7 0.00 0.00 0.00 66 1021.7
20260502025504 11 106 4.8 9.7 0.00 0.00 0.00 65 1021.6
20260502025004 11 90 3.2 6.4 0.00 0.00 0.00 66 1021.6
20260502024504 11 86 3.2 6.4 0.00 0.00 0.00 65 1021.3
20260502023505 11 96 3.2 6.4 0.00 0.00 0.00 65 1021.5
20260502023004 11 101 3.2 6.4 0.00 0.00 0.00 64 1021.5
20260502022504 11 100 4.8 8.0 0.00 0.00 0.00 63 1021.6
20260502022004 11 105 4.8 8.0 0.00 0.00 0.00 64 1021.5
20260502021507 11 108 3.2 8.0 0.00 0.00 0.00 64 1021.4
20260502021004 11 104 3.2 6.4 0.00 0.00 0.00 64 1021.8
20260502020005 11 88 3.2 6.4 0.00 0.00 0.00 64 1021.6
20260502015504 11 84 3.2 4.8 0.00 0.00 0.00 63 1021.8
20260502015004 11 81 3.2 6.4 0.00 0.00 0.00 62 1021.6
20260502014504 11 78 3.2 6.4 0.00 0.00 0.00 62 1021.7
20260502014004 11 83 4.8 8.0 0.00 0.00 0.00 62 1021.7
20260502013507 11 91 4.8 8.0 0.00 0.00 0.00 63 1021.7
20260502013004 11 94 4.8 8.0 0.00 0.00 0.00 63 1021.9
20260502012504 11 100 4.8 8.0 0.00 0.00 0.00 64 1022.0
20260502012004 11 96 4.8 6.4 0.00 0.00 0.00 64 1022.1
20260502011504 11 95 3.2 4.8 0.00 0.00 0.00 63 1021.9
20260502010505 11 89 3.2 6.4 0.00 0.00 0.00 62 1022.0
20260502010004 11 87 3.2 6.4 0.00 0.00 0.00 62 1022.0
20260502005507 11 82 4.8 6.4 0.00 0.00 0.00 62 1022.1
20260502005004 11 81 4.8 6.4 0.00 0.00 0.00 62 1022.0
20260502004507 11 85 3.2 6.4 0.00 0.00 0.00 62 1022.2
20260502004004 11 83 4.8 8.0 0.00 0.00 0.00 60 1022.1
20260502003505 11 78 4.8 8.0 0.00 0.00 0.00 60 1022.0
20260502002505 12 79 4.8 6.4 0.00 0.00 0.00 58 1022.4
20260502002004 12 79 4.8 8.0 0.00 0.00 0.00 58 1022.1
20260502001504 12 81 4.8 8.0 0.00 0.00 0.00 58 1022.2
20260502001004 12 68 3.2 6.4 0.00 0.00 0.00 58 1022.3
20260502000507 12 54 3.2 6.4 0.00 0.00 0.00 58 1022.4
20260502000004 12 50 3.2 6.4 0.00 0.00 0.00 58 1022.4
20260501235507 12 49 1.6 4.8 0.00 0.00 0.00 58 1022.5
20260501235004 12 46 4.8 11.3 0.00 0.00 0.00 55 1022.4
20260501234004 12 57 6.4 11.3 0.00 0.00 0.00 58 1022.3
20260501233504 12 69 6.4 11.3 0.00 0.00 0.00 58 1022.5
20260501233004 12 71 4.8 9.7 0.00 0.00 0.00 59 1022.5
20260501232503 11 75 4.8 9.7 0.00 0.00 0.00 60 1022.6
20260501232004 11 78 4.8 8.0 0.00 0.00 0.00 59 1022.6
20260501231504 11 78 4.8 8.0 0.00 0.00 0.00 59 1022.6
20260501231004 12 81 3.2 6.4 0.00 0.00 0.00 59 1022.6
20260501230504 12 82 3.2 6.4 0.00 0.00 0.00 59 1022.7
20260501230004 12 79 3.2 8.0 0.00 0.00 0.00 58 1022.7
20260501225004 12 73 3.2 8.0 0.00 0.00 0.00 55 1022.7
20260501224504 12 70 4.8 8.0 0.00 0.00 0.00 55 1022.4
20260501224004 12 72 4.8 8.0 0.00 0.00 0.00 55 1022.7
20260501222504 12 67 4.8 12.9 0.00 0.00 0.00 54 1022.8
20260501222005 12 67 4.8 8.0 0.00 0.00 0.00 54 1022.6
20260501221504 12 64 4.8 8.0 0.00 0.00 0.00 53 1022.6
20260501221004 12 65 4.8 9.7 0.00 0.00 0.00 53 1022.6
20260501220504 12 71 4.8 9.7 0.00 0.00 0.00 53 1022.6
20260501215504 12 70 6.4 11.3 0.00 0.00 0.00 54 1022.8
20260501214504 12 74 4.8 9.7 0.00 0.00 0.00 54 1022.6
20260501213005 13 63 4.8 6.4 0.00 0.00 0.00 54 1022.6
20260501212504 13 64 6.4 11.3 0.00 0.00 0.00 54 1022.8
20260501212005 13 57 8.0 11.3 0.00 0.00 0.00 54 1022.8
20260501211503 13 52 6.4 12.9 0.00 0.00 0.00 54 1022.8
20260501211004 13 46 6.4 12.9 0.00 0.00 0.00 55 1022.6
20260501210503 13 41 6.4 9.7 0.00 0.00 0.00 56 1022.9
20260501210004 13 27 6.4 9.7 0.00 0.00 0.00 56 1022.8
20260501205504 13 19 6.4 9.7 0.00 0.00 0.00 55 1022.8
20260501205004 14 14 6.4 9.7 0.00 0.00 0.00 55 1022.9
20260501204503 14 10 6.4 9.7 0.00 0.00 0.00 56 1022.8
20260501204004 14 10 6.4 9.7 0.00 0.00 0.00 56 1022.8
20260501203505 14 13 6.4 11.3 0.00 0.00 0.00 56 1022.7
20260501203004 14 18 6.4 11.3 0.00 0.00 0.00 56 1022.7
20260501202004 15 31 6.4 9.7 0.00 0.00 0.00 56 1022.8
20260501201004 15 41 6.4 11.3 0.00 0.00 0.00 56 1022.8
20260501200503 15 40 6.4 11.3 0.00 0.00 0.00 56 1022.7
20260501200004 15 38 6.4 11.3 0.00 0.00 0.00 56 1022.7
20260501195504 15 39 6.4 12.9 0.00 0.00 0.00 55 1022.7
20260501195004 15 36 6.4 12.9 0.00 0.00 0.00 55 1022.8
20260501194504 15 31 6.4 11.3 0.00 0.00 0.00 55 1022.7
20260501194004 15 28 6.4 11.3 0.00 0.00 0.00 56 1022.8
20260501193504 15 29 6.4 11.3 0.00 0.00 0.00 56 1022.6
20260501193004 15 32 6.4 9.7 0.00 0.00 0.00 56 1022.6
20260501192504 15 34 4.8 9.7 0.00 0.00 0.00 56 1022.6
20260501191007 16 55 4.8 9.7 0.00 0.00 0.00 56 1022.5
20260501190006 16 59 4.8 8.0 0.00 0.00 0.00 55 1022.6
20260501185504 16 54 4.8 8.0 0.00 0.00 0.00 55 1022.4
20260501185003 16 51 4.8 8.0 0.00 0.00 0.00 55 1022.4
20260501184504 16 49 6.4 8.0 0.00 0.00 0.00 55 1022.2
20260501184004 17 50 4.8 8.0 0.00 0.00 0.00 54 1022.1
20260501183504 17 48 4.8 9.7 0.00 0.00 0.00 54 1022.2
20260501182507 17 47 4.8 8.0 0.00 0.00 0.00 49 1022.2
20260501182003 17 47 4.8 8.0 0.00 0.00 0.00 48 1022.1
20260501181504 18 44 4.8 8.0 0.00 0.00 0.00 48 1022.1
20260501181004 18 44 4.8 8.0 0.00 0.00 0.00 48 1022.1
20260501180504 18 50 4.8 8.0 0.00 0.00 0.00 47 1022.1
20260501180004 18 56 4.8 8.0 0.00 0.00 0.00 47 1021.9